Tracking 19794 objects as of 21-Jul-2019
HD Live streaming from Space Station
objects crossing your sky now

FENGYUN 1C DEB

Track FENGYUN 1C DEB now!
10-day predictions


NORAD ID: 37896
Int'l Code: 1999-025EMV
Perigee: 414.2 km
Apogee: 582.0 km
Inclination: 98.6 °
Period: 94.4 minutes
Semi major axis: 6869 km
RCS: 0.0005 m2 (small)
Launch date: May 10, 1999
Source: People's Republic of China (PRC)
Launch site: Taiyaun Space Center, China (TSC)

Note: This is SATELLITE DEBRIS
aabbcc
Your satellite tracking list
Your tracking list is empty




NASA's NSSDC Master Catalog

Two Line Element Set (TLE):
1 37896U 99025EMV 19201.87864388 +.00008394 +00000-0 +27540-3 0  9998
2 37896 098.5999 170.4204 0122123 020.5199 340.0879 15.24936401288496
Source of the keplerian elements: AFSPC